N2RFA-13 Weather Reports


Display with metric or nautical units.
time (UTC)temp
F
wind
direction
speed
MPH
gust
MPH
rain 1hr
in
rain 24hr
in
rain mn
in
humidity
%
barometer
mb
20260508174549 60 207 0.0 8.0 0.00 0.02 0.02 48 1012.8
20260508173050 60 123 2.0 8.0 0.00 0.02 0.02 50 1012.8
20260508171549 58 194 1.0 5.0 0.00 0.02 0.02 51 1013.1
20260508170048 59 128 2.0 8.0 0.00 0.02 0.02 48 1012.9
20260508164558 59 103 1.0 5.0 0.00 0.02 0.02 51 1012.9
20260508163047 59 147 2.0 8.0 0.00 0.02 0.02 51 1013.3
20260508161550 60 115 2.0 5.0 0.00 0.02 0.02 49 1013.5
20260508160042 58 194 1.0 7.0 0.00 0.02 0.02 54 1013.6
20260508154544 57 176 2.0 6.0 0.00 0.02 0.02 53 1013.9
20260508153042 55 117 1.0 3.0 0.00 0.02 0.02 54 1014.0
20260508151544 55 170 0.0 7.0 0.00 0.02 0.02 53 1014.1
20260508150045 58 194 1.0 5.0 0.00 0.02 0.02 52 1013.9
20260508144555 58 172 0.0 5.0 0.00 0.02 0.02 55 1013.7
20260508143036 57 138 0.0 3.0 0.00 0.02 0.02 57 1013.7
20260508141534 56 136 0.0 2.0 0.00 0.02 0.02 57 1013.8
20260508140034 56 194 0.0 4.0 0.00 0.02 0.02 55 1013.9
20260508134537 55 134 0.0 3.0 0.00 0.02 0.02 59 1014.0
20260508133031 53 117 0.0 4.0 0.00 0.02 0.02 63 1014.2
20260508131522 52 138 0.0 5.0 0.00 0.02 0.02 69 1014.2
20260508130019 52 140 0.0 1.0 0.00 0.02 0.02 69 1014.1
20260508124516 51 127 0.0 1.0 0.00 0.02 0.02 73 1014.2
20260508123012 50 137 0.0 1.0 0.00 0.02 0.02 76 1014.2
20260508121509 48 99 0.0 1.0 0.00 0.02 0.02 82 1014.1
20260508120007 46 124 0.0 2.0 0.00 0.02 0.02 85 1014.1
20260508114508 45 194 0.0 1.0 0.00 0.02 0.02 92 1014.2
20260508113005 43 194 0.0 0.0 0.00 0.02 0.02 94 1014.0
20260508111505 41 194 0.0 0.0 0.00 0.02 0.02 94 1013.9
20260508110001 40 194 0.0 0.0 0.00 0.02 0.02 93 1013.8
20260508104602 39 194 0.0 0.0 0.00 0.02 0.02 93 1013.7
20260508103102 39 194 0.0 0.0 0.00 0.02 0.02 92 1013.7
20260508101614 39 194 0.0 0.0 0.00 0.02 0.02 92 1013.4
20260508100054 39 194 0.0 0.0 0.00 0.02 0.02 92 1013.1
20260508094552 40 194 0.0 0.0 0.00 0.02 0.02 92 1012.9
20260508093051 40 194 0.0 0.0 0.00 0.02 0.02 91 1013.0
20260508091558 41 194 0.0 0.0 0.00 0.02 0.02 91 1013.0
20260508090100 41 194 0.0 0.0 0.00 0.02 0.02 91 1013.0
20260508084543 42 194 0.0 0.0 0.00 0.03 0.02 91 1012.9
20260508083042 42 194 0.0 0.0 0.00 0.03 0.02 91 1012.6
20260508081542 42 194 0.0 0.0 0.00 0.03 0.02 91 1012.7
20260508080047 43 194 0.0 0.0 0.00 0.03 0.02 90 1012.5
20260508074543 44 194 0.0 0.0 0.00 0.04 0.02 91 1012.8
20260508073042 43 194 0.0 0.0 0.00 0.04 0.02 91 1012.9
20260508071547 43 194 0.0 0.0 0.00 0.04 0.02 91 1012.7
20260508070036 44 194 0.0 0.0 0.01 0.04 0.02 91 1012.6
20260508064538 44 194 0.0 0.0 0.01 0.10 0.02 90 1012.6
20260508063033 44 194 0.0 0.0 0.02 0.10 0.02 90 1012.7
20260508061532 44 194 0.0 0.0 0.02 0.10 0.02 89 1012.6
20260508060034 45 194 0.0 0.0 0.01 0.09 0.01 87 1012.8
20260508054530 46 197 0.0 0.0 0.01 0.12 0.01 83 1013.1
20260508053044 47 194 0.0 2.0 0.00 0.11 0.00 76 1012.9
20260508051523 46 125 0.0 1.0 0.00 0.11 0.00 79 1012.1
20260508050022 44 125 0.0 0.0 0.00 0.11 0.00 84 1010.7
20260508044518 44 125 0.0 0.0 0.00 0.11 0.00 82 1010.5
20260508043018 44 125 0.0 0.0 0.00 0.11 0.00 82 1010.3
20260508041519 44 124 0.0 0.0 0.00 0.11 0.00 82 1010.5
20260508040012 44 124 0.0 0.0 0.00 0.11 0.00 81 1010.6
20260508034511 43 124 0.0 0.0 0.00 0.11 0.11 81 1010.5
20260508033010 43 124 0.0 0.0 0.00 0.11 0.11 82 1010.4
20260508031510 43 124 0.0 0.0 0.00 0.11 0.11 81 1010.5
20260508030109 43 124 0.0 0.0 0.00 0.11 0.11 80 1010.7
20260508024508 44 124 0.0 0.0 0.00 0.11 0.11 78 1010.7
20260508023005 44 124 0.0 0.0 0.00 0.11 0.11 77 1010.8
20260508021506 45 124 0.0 0.0 0.00 0.11 0.11 76 1010.7
20260508020002 45 124 0.0 0.0 0.00 0.11 0.11 75 1010.6
20260508014502 46 124 0.0 0.0 0.00 0.11 0.11 73 1010.5
20260508013001 47 124 0.0 0.0 0.00 0.11 0.11 70 1010.3
20260508011603 47 124 0.0 0.0 0.00 0.11 0.11 68 1010.4
20260508010059 49 124 0.0 0.0 0.00 0.11 0.11 68 1010.2
20260508004602 49 124 0.0 0.0 0.00 0.12 0.11 66 1010.2
20260508003105 50 124 0.0 0.0 0.00 0.12 0.11 61 1009.9
20260508001558 52 124 0.0 0.0 0.00 0.12 0.11 61 1009.7
20260508000057 53 124 0.0 1.0 0.00 0.12 0.11 56 1009.5
20260507234557 53 124 0.0 1.0 0.00 0.12 0.11 53 1009.2
20260507233105 54 124 0.0 1.0 0.00 0.12 0.11 54 1009.3
20260507231556 55 124 0.0 0.0 0.00 0.12 0.11 53 1009.2
20260507230056 56 124 0.0 1.0 0.00 0.12 0.11 48 1009.1
20260507224559 57 124 0.0 3.0 0.00 0.12 0.11 45 1009.1
20260507223101 57 134 0.0 1.0 0.00 0.12 0.11 48 1008.8
20260507221554 58 126 0.0 1.0 0.00 0.12 0.11 46 1009.0
20260507220053 58 126 0.0 1.0 0.00 0.12 0.11 44 1009.1
20260507214605 59 125 0.0 1.0 0.00 0.12 0.11 41 1009.2
20260507213103 59 94 0.0 1.0 0.00 0.12 0.11 41 1009.2
20260507211552 60 116 0.0 6.0 0.00 0.12 0.11 39 1009.1
20260507210051 61 128 0.0 5.0 0.00 0.12 0.11 39 1009.0
20260507204550 61 178 0.0 2.0 0.00 0.12 0.11 39 1008.8
20260507203050 61 117 0.0 3.0 0.00 0.12 0.11 39 1008.9
20260507201550 61 125 1.0 4.0 0.00 0.12 0.11 39 1008.8
20260507200049 62 74 0.0 2.0 0.00 0.12 0.11 39 1008.7
20260507194614 62 128 0.0 5.0 0.00 0.13 0.11 38 1008.8
20260507193046 62 194 0.0 4.0 0.00 0.13 0.11 40 1008.9
20260507191544 62 277 0.0 4.0 0.00 0.13 0.11 41 1009.2
20260507190050 63 296 1.0 4.0 0.00 0.13 0.11 39 1009.3
20260507184541 63 113 0.0 3.0 0.00 0.15 0.11 39 1009.4
20260507183045 63 117 0.0 5.0 0.00 0.15 0.11 39 1009.6
20260507181541 62 131 0.0 3.0 0.00 0.15 0.11 42 1009.8
20260507180039 62 117 0.0 4.0 0.00 0.15 0.11 43 1010.1